Regional Weather Roundup
Issued by NWS Upton, NY

Current Version | Previous Version | Text Only | Print | Product List | Glossary On
Versions: 1 2 3 4 5 6 7 8 9 10 11 12 13 14 15 16 17 18 19 20 21 22 23 24 25 26 27 28
000
ASUS41 KOKX 130608
RWROKX

REGIONAL WEATHER ROUNDUP
NATIONAL WEATHER SERVICE NEW YORK NY
100 AM EST WED DEC 13 2017

NOTE: "FAIR" INDICATES FEW OR NO CLOUDS BELOW 12,000 FEET WITH NO
SIGNIFICANT WEATHER AND/OR OBSTRUCTIONS TO VISIBILITY.

NYZ071-072-176-178-NJZ106-104-130700-
NEW YORK CITY METRO AREA

CITY           SKY/WX    TMP DP  RH WIND       PRES   REMARKS
Central Park   CLOUDY    28   7  41 W10G25    29.50R WCI  19
Bronx Bot Gard   N/A     28   7  40 NW12      29.50R WCI  18
Bronx Lehman C   N/A     28   9  43 NW13        N/A  WCI  18
LaGuardia APRT MOCLDY    30  14  51 NW21      29.48R WCI  17
Queens College   N/A     30   9  40 NW16        N/A  WCI  19
Kennedy INTL   PTCLDY    28   7  41 W18G29    29.50R WCI  15
Breezy Point     N/A    N/A N/A N/A NW17G30     N/A
Brooklyn Coll    N/A     30   5  34 NW18        N/A  WCI  18
Staten Island    N/A     28   7  40 NW14G28     N/A  WCI  17
Newark/Liberty MOCLDY    27   5  39 NW21G28   29.51R WCI  13
Teterboro      CLOUDY    27  11  51 NW16G26   29.50R WCI  15
$$

NYZ177-179-078>081-130700-
LONG ISLAND NEW YORK

CITY           SKY/WX    TMP DP  RH WIND       PRES   REMARKS
Jones Beach      N/A    N/A N/A N/A NW22G31     N/A
Wantagh          N/A     30  10  43 W14G25      N/A  WCI  20
Matinecock PT    N/A    N/A N/A N/A W40G49      N/A
Farmingdale    CLOUDY    29  10  45 NW15G26   29.46R WCI  18
MacArthur/ISP  CLOUDY    30  14  51 W21G26    29.43R WCI  17
Shirley        CLOUDY    31  17  56 W21G28    29.42S WCI  18
Mt Sinai Harb    N/A    N/A N/A N/A W15G23      N/A
Westhampton    CLOUDY    33  23  66 W10       29.40F WCI  25
East Hampton   CLOUDY    32  22  66 NW10G18   29.36S WCI  24
Southold         N/A     32  23  69 NW17        N/A  WCI  21
Montauk          N/A     35  24  64 NW16G26   29.36S WCI  25
$$

NYZ052-065-067-130700-
HUDSON VALLEY

CITY           SKY/WX    TMP DP  RH WIND       PRES   REMARKS
White Plains   MOCLDY    25   9  50 NW22G30   29.45R WCI  10
Larchmont Harb   N/A    N/A N/A N/A W21G26      N/A
Croton On Huds   N/A    N/A N/A N/A W23G33      N/A
Somers           N/A     25  10  54 NW13G24     N/A  WCI  13
Brewster         N/A     25  12  58 W13         N/A  WCI  13
Newburgh       MOCLDY    25  14  63 MISG      29.47S
Montgomery     MOCLDY    22   8  55 W13G20    29.47F WCI  10
Otisville        N/A     19   9  63 W10         N/A  WCI   8
Warwick          N/A     23   9  54 NW16        N/A  WCI  10
Suffern          N/A     23   9  54 NW9         N/A  WCI  13
Poughkeepsie   CLOUDY    23   6  48 W16G22    29.46S WCI  10
Albany         CLOUDY    20   4  50 NW20G26   29.45S WCI   4
$$

NJZ001-105-106-008-010-013-015-019>022-104-130700-
NEW JERSEY

CITY           SKY/WX    TMP DP  RH WIND       PRES   REMARKS
Newark/Liberty MOCLDY    27   5  39 NW21G28   29.51R WCI  13
Teterboro      CLOUDY    27  11  51 NW16G26   29.50R WCI  15
Caldwell       MOCLDY    24   5  44 NW18G25   29.52R WCI  10
Somerville     CLOUDY    24   5  44 NW17G28   29.53R WCI  11
Linden         CLOUDY    28   6  39 NW14G28   29.51R WCI  16
Perth Amboy      N/A    N/A N/A N/A W22G30      N/A
Sussex         CLEAR     21   3  45 W9        29.50F WCI  11
Andover        NOT AVBL
Trenton        CLEAR     23   3  42 NW20G29   29.57R WCI   8
Millville      CLEAR     23   1  38 NW28G37   29.65R WCI   6
Atlantic City  CLEAR     24   4  42 W21G31    29.59R WCI   9
Wrightstown    CLEAR     23   2  40 NW20G31   29.54R WCI   8
Toms River     CLEAR     24   7  48 W16G25    29.57  WCI  11
Belmar         CLEAR     24   7  48 W18G28    29.53R WCI  10
$$

PAZ047>061-062-071-130700-
EASTERN PENNSYLVANIA

CITY           SKY/WX    TMP DP  RH WIND       PRES   REMARKS
Philadelphia   CLEAR     23  -2  33 W20G33    29.64R WCI   8
Allentown      CLEAR     20   3  48 W9        29.59R WCI   9
Scranton       MOCLDY    17   3  54 W14       29.52S WCI   3
$$

CTZ002-004>006-009-010-012-RIZ004-006-007-MAZ004-011-015-130700-
SOUTHERN NEW ENGLAND
 IN CT

CITY           SKY/WX    TMP DP  RH WIND       PRES   REMARKS
Bradley INTL   MOCLDY    26  16  65 NW12      29.37F WCI  16
Hartford       CLOUDY    29  18  63 W15       29.38F WCI  18
Danbury        CLOUDY    26  11  52 W15G22    29.42F WCI  14
Wtrbury/Oxford FLURRIES  25  14  63 NW10G21   29.38F WCI  15
Norwalk Harbor   N/A    N/A N/A N/A W17G23      N/A
Bridgeport     CLOUDY    31  17  56 NW16G28   29.41S WCI  20
Meriden        CLOUDY    27  12  53 NW14G24   29.39F WCI  16
New Haven      CLOUDY    32  19  58 NW15      29.39F WCI  22
Chester        MOCLDY    28  16  59 NW12G26   29.34S WCI  18
Groton         CLOUDY    31  19  61 NW16G23   29.35S WCI  20
Wilimantic     MOCLDY    29  17  61 NW14G20   29.35S WCI  18

 IN RI

CITY           SKY/WX    TMP DP  RH WIND       PRES   REMARKS
Providence     CLOUDY    32  26  78 W18G29    29.29S WCI  20
Block Island   CLOUDY    33  23  66 NW13G23   29.34R WCI  24
Westerly       CLOUDY    32  20  61 NW8G25    29.35R WCI  25
 IN MA

CITY           SKY/WX    TMP DP  RH WIND       PRES   REMARKS
Boston         CLOUDY    35  29  78 W15       29.23F WCI  25
Worcester      CLOUDY    25  19  78 W24G35    29.22R WCI   9
Westfield      MOCLDY    24  10  55 NW20G29   29.35F WCI  10
Provincetown   CLOUDY    38  34  85 NW22G28   29.20F WCI  27
Nantucket      CLOUDY    39  37  92 W14       29.25S WCI  31
$$

ANZ330-335-338-340-345-350-353-355-130700-
COASTAL MARINE OBSERVATIONS


STATION/POSITION TIME  SKY/WX   TEMP    WIND        PRES    VSBY  WAVE
                                AIR SEA DIR/SP/G                  HT/PER
                 (UTC)          (F)     (DEG/KT/KT) (MB)    (MI)  (FT/S)
NY HARB ENTRANCE 0450            35 53  310/ 25/ 29  996.2          5/ 5
20 S FIRE ISLAND 0450            37 52  320/ 19/ 25  996.3          7/ 6
GREAT SOUTH BAY  0530            33 45  280/ 19/ 23   N/A
HUDSON CANYON    0450            42 56  310/ 25/ 33  994.9         10/ 8
KINGS POINT      0530            30 45   10/ 20/ 25  998.9
EXECUTION ROCKS  0530            31     300/ 21/ 29   N/A
WESTERN LI SOUND NOT AVBL
CENTRAL LI SOUND 0453            35     310/ 19/ 25   N/A           3
ROBBINS REEF     0530            29     300/ 21/ 24  999.0
$$


>>>>>>>>>>>>>>>>>>>>>>>>>>>> KEY <<<<<<<<<<<<<<<<<<<<<<<<<<<
>                                                          <
>     SKY/WX - Sky Condition/Present Weather               <
>     TMP    - Temperature in Fahrenheit                   <
>     DP     - Dew Point in Fahrenheit                     <
>     RH     - Relative Humidity in Percent                <
>     WIND   - Direction (from) and Speed in MPH           <
>     PRES   - Mean Sea Level Pressure (inches of Hg)      <
>     WCI    - Wind Chill Index                            <
>     VSB    - VISIBILITY IN MILES                         <
>     HX     - HEAT INDEX                                  <
>     TC     - TEMPERATURE IN CELSIUS                      <
>     VRB    - VARIABLE WIND DIRECTION                     <
>                                                          <
>>>>>>>>>>>>>>>>>>>>>>>>>>>> KEY <<<<<<<<<<<<<<<<<<<<<<<<<<<




USA.gov is the U.S. government's official web portal to all federal, state and local government web resources and services.